EW7580 Weather Reports


time (UTC)temp
C
wind
direction
speed
KPH
gust
KPH
rain 1hr
cm
rain 24hr
cm
rain mn
cm
humidity
%
barometer
mb
20191021222214 11 46 0.0 3.2 0.00 0.00 0.00 84 1021.9
20191021221314 11 46 0.0 3.2 0.00 0.00 0.00 84 1021.9
20191021220414 11 46 1.6 3.2 0.00 0.00 0.00 84 1021.9
20191021215514 12 314 0.0 1.6 0.00 0.00 0.00 82 1021.8
20191021214614 12 331 0.0 3.2 0.00 0.00 0.00 81 1021.5
20191021213714 12 317 0.0 3.2 0.00 0.00 0.00 80 1021.3
20191021212814 12 1 0.0 4.8 0.00 0.00 0.00 79 1021.3
20191021211914 13 342 1.6 4.8 0.00 0.00 0.00 78 1021.1
20191021211014 13 278 0.0 6.4 0.00 0.00 0.00 77 1021.0
20191021210114 13 332 1.6 9.7 0.00 0.00 0.00 76 1020.9
20191021205214 13 80 1.6 11.3 0.00 0.00 0.00 76 1020.7
20191021204314 13 163 1.6 11.3 0.00 0.00 0.00 75 1020.8
20191021203414 13 178 1.6 11.3 0.00 0.00 0.00 75 1020.7
20191021202514 13 18 4.8 8.0 0.00 0.00 0.00 76 1020.7
20191021201614 13 276 1.6 14.5 0.00 0.00 0.00 77 1020.7
20191021200714 13 165 0.0 8.0 0.00 0.00 0.00 77 1020.6
20191021195814 13 152 3.2 16.1 0.00 0.00 0.00 78 1020.5
20191021194914 13 121 6.4 16.1 0.00 0.00 0.00 78 1020.3
20191021194014 13 22 8.0 16.1 0.00 0.00 0.00 79 1020.1
20191021193114 13 84 3.2 11.3 0.00 0.00 0.00 78 1020.0
20191021192214 13 130 6.4 16.1 0.00 0.00 0.00 77 1020.3
20191021191314 14 86 9.7 24.1 0.00 0.00 0.00 76 1020.3
20191021190414 14 75 6.4 16.1 0.00 0.00 0.00 77 1020.5
20191021185514 14 122 4.8 19.3 0.00 0.00 0.00 76 1020.3
20191021184614 14 97 1.6 14.5 0.00 0.00 0.00 75 1020.3
20191021183714 15 166 6.4 20.9 0.00 0.00 0.00 74 1020.5
20191021182814 15 201 6.4 16.1 0.00 0.00 0.00 73 1020.5
20191021181914 15 118 6.4 20.9 0.00 0.00 0.00 73 1020.5
20191021181014 15 100 8.0 16.1 0.00 0.00 0.00 73 1020.5
20191021180114 15 109 1.6 16.1 0.00 0.00 0.00 71 1020.6
20191021175214 16 132 3.2 9.7 0.00 0.00 0.00 70 1020.6
20191021174314 16 19 1.6 12.9 0.00 0.00 0.00 70 1020.6
20191021173414 15 198 3.2 12.9 0.00 0.00 0.00 71 1020.5
20191021172514 15 91 8.0 16.1 0.00 0.00 0.00 71 1020.4
20191021171614 15 350 9.7 16.1 0.00 0.00 0.00 71 1020.5
20191021170714 15 153 3.2 14.5 0.00 0.00 0.00 72 1020.6
20191021165814 15 102 6.4 12.9 0.00 0.00 0.00 75 1020.6
20191021164914 15 325 3.2 11.3 0.00 0.00 0.00 78 1020.5
20191021164014 14 150 1.6 16.1 0.00 0.00 0.00 81 1020.6
20191021163116 14 207 4.8 12.9 0.00 0.00 0.00 83 1020.8
20191021162214 14 211 8.0 16.1 0.00 0.00 0.00 83 1020.8
20191021161314 13 136 8.0 12.9 0.00 0.00 0.00 84 1020.8
20191021160414 13 257 1.6 11.3 0.00 0.00 0.00 84 1021.1
20191021155514 13 155 3.2 11.3 0.00 0.00 0.00 84 1020.9
20191021154614 13 117 1.6 16.1 0.00 0.00 0.00 84 1020.6
20191021153714 13 212 4.8 14.5 0.00 0.00 0.00 84 1020.8
20191021152814 14 293 4.8 12.9 0.00 0.00 0.00 84 1020.6
20191021151914 14 3 6.4 19.3 0.00 0.00 0.00 85 1020.3
20191021151014 13 313 8.0 19.3 0.00 0.00 0.00 86 1020.6
20191021150114 13 307 4.8 11.3 0.00 0.00 0.00 89 1020.3
20191021145214 13 89 0.0 12.9 0.00 0.00 0.00 91 1019.9
20191021144314 13 231 1.6 16.1 0.00 0.00 0.00 92 1020.1
20191021143414 13 231 4.8 16.1 0.00 0.00 0.00 92 1019.9
20191021142514 13 202 4.8 11.3 0.00 0.00 0.00 93 1020.1
20191021141614 12 272 3.2 14.5 0.00 0.00 0.00 94 1020.4
20191021140714 12 189 1.6 6.4 0.00 0.00 0.00 95 1020.4
20191021135814 12 282 1.6 14.5 0.00 0.00 0.00 96 1020.3
20191021134914 12 230 4.8 16.1 0.00 0.00 0.00 97 1020.1
20191021134014 12 224 9.7 16.1 0.00 0.00 0.00 97 1020.1
20191021133114 12 247 3.2 9.7 0.00 0.00 0.00 97 1020.1
20191021132214 12 246 3.2 9.7 0.00 0.00 0.00 97 1020.1
20191021131314 12 276 6.4 11.3 0.00 0.00 0.00 97 1020.3
20191021130414 12 281 3.2 11.3 0.00 0.00 0.00 97 1020.5
20191021125514 11 305 4.8 11.3 0.00 0.00 0.00 98 1020.4
20191021124615 11 254 4.8 8.0 0.00 0.00 0.00 98 1020.7
20191021123714 11 280 1.6 4.8 0.00 0.00 0.00 98 1020.6
20191021122814 11 290 3.2 8.0 0.00 0.00 0.00 98 1020.6
20191021121914 11 270 1.6 4.8 0.00 0.00 0.00 98 1020.5
20191021121015 11 291 1.6 4.8 0.00 0.00 0.00 98 1020.5
20191021120114 10 311 3.2 4.8 0.00 0.00 0.00 98 1020.5
20191021115214 10 310 1.6 4.8 0.00 0.00 0.00 98 1020.4
20191021114315 10 281 1.6 4.8 0.00 0.00 0.00 98 1020.4
20191021113414 10 274 1.6 3.2 0.00 0.00 0.00 98 1020.3
20191021112514 10 273 0.0 3.2 0.00 0.00 0.00 98 1020.2
20191021111615 10 258 1.6 3.2 0.00 0.00 0.00 98 1020.0
20191021110714 10 250 1.6 3.2 0.00 0.00 0.00 98 1019.9
20191021105815 10 278 0.0 3.2 0.00 0.00 0.00 98 1019.7
20191021104914 10 242 0.0 3.2 0.00 0.00 0.00 98 1019.6
20191021104015 10 266 0.0 4.8 0.00 0.00 0.00 98 1019.4
20191021103114 10 265 0.0 3.2 0.00 0.00 0.00 98 1019.4
20191021102215 10 244 0.0 8.0 0.00 0.00 0.00 98 1019.5
20191021101315 10 263 1.6 3.2 0.00 0.00 0.00 98 1019.2
20191021100414 10 285 0.0 8.0 0.00 0.00 0.00 98 1019.5
20191021095515 10 289 4.8 8.0 0.00 0.00 0.00 98 1019.4
20191021094615 10 270 0.0 3.2 0.00 0.00 0.00 98 1019.4
20191021093715 10 270 0.0 3.2 0.00 0.00 0.00 98 1019.2
20191021092815 10 189 0.0 3.2 0.00 0.00 0.00 98 1019.0
20191021091915 10 270 0.0 3.2 0.00 0.00 0.00 98 1019.1
20191021091015 10 281 0.0 3.2 0.00 0.00 0.00 98 1018.8
20191021090115 10 7 0.0 4.8 0.00 0.00 0.00 98 1018.7
20191021085215 10 274 0.0 3.2 0.00 0.00 0.00 98 1018.6
20191021084315 10 280 0.0 3.2 0.00 0.00 0.00 98 1018.8
20191021083415 10 314 0.0 3.2 0.00 0.00 0.00 98 1018.6
20191021082515 10 306 1.6 3.2 0.00 0.00 0.00 98 1018.8
20191021081615 10 281 0.0 3.2 0.00 0.00 0.00 98 1018.5
20191021080715 10 0 0.0 0.0 0.00 0.00 0.00 98 1018.6
20191021075815 10 75 0.0 3.2 0.00 0.00 0.00 98 1018.3
20191021074915 10 332 0.0 3.2 0.00 0.00 0.00 98 1018.4
20191021074015 10 306 0.0 4.8 0.00 0.00 0.00 98 1018.5
20191021073115 10 314 0.0 3.2 0.00 0.00 0.00 98 1018.3
20191021072215 10 65 0.0 3.2 0.00 0.00 0.00 98 1018.4
20191021071315 10 310 0.0 4.8 0.00 0.00 0.00 98 1018.7
20191021070415 10 312 0.0 3.2 0.00 0.00 0.00 97 1018.7
20191021065515 10 291 0.0 3.2 0.00 0.00 0.00 97 1018.4
20191021064616 10 314 0.0 3.2 0.00 0.00 0.00 97 1018.7
20191021063715 10 297 1.6 3.2 0.00 0.00 0.00 97 1018.7
20191021062815 11 277 0.0 3.2 0.00 0.00 0.00 97 1018.5
20191021061915 10 0 0.0 0.0 0.00 0.00 0.00 97 1018.2
20191021061015 10 0 0.0 0.0 0.00 0.00 0.00 97 1018.6
20191021060115 10 0 0.0 0.0 0.00 0.00 0.00 97 1018.6
20191021055215 10 0 0.0 0.0 0.00 0.00 0.00 97 1018.7